IZ2XSB-13 Weather Reports


time (UTC)temp
C
wind
direction
speed
KPH
gust
KPH
rain 1hr
cm
rain 24hr
cm
rain mn
cm
humidity
%
barometer
mb
20260506070315 10 131 3.2 4.8 0.10 8.31 0.61 96 1011.3
20260506062328 10 138 0.0 3.2 0.71 8.31 0.61 96 1011.4
20260506061827 10 138 1.6 4.8 0.79 8.31 0.61 96 1011.4
20260506061325 10 138 3.2 8.0 0.79 8.31 0.61 95 1011.6
20260506060818 10 144 3.2 8.0 0.99 8.31 0.61 96 1011.3
20260506060337 10 53 3.2 6.4 0.99 8.20 0.61 96 1011.3
20260506051325 10 239 3.2 4.8 2.01 7.39 0.43 95 1011.1
20260506050823 10 173 0.0 1.6 1.91 7.29 0.43 95 1011.0
20260506050323 11 182 0.0 4.8 1.91 7.19 0.41 95 1011.0
20260506044824 11 50 1.6 4.8 1.40 6.71 0.30 95 1011.5
20260506044323 11 81 0.0 3.2 1.19 6.50 0.25 95 1011.8
20260506043841 11 81 1.6 3.2 0.99 6.30 0.23 95 1011.8
20260506043319 11 81 1.6 3.2 0.71 5.99 0.15 95 1011.7
20260506042821 11 81 0.0 3.2 0.51 5.79 0.13 95 1011.6
20260506042320 11 81 0.0 3.2 0.30 5.59 0.08 95 1011.5
20260506041818 11 81 0.0 4.8 0.20 5.51 0.05 95 1011.4
20260506041317 11 81 3.2 4.8 0.10 5.41 0.05 95 1011.4
20260506040818 11 32 3.2 4.8 0.10 5.41 0.05 95 1011.2
20260506040332 11 41 0.0 4.8 0.00 5.31 0.03 95 1011.3
20260506035852 11 22 1.6 4.8 0.00 5.31 0.03 95 1011.2
20260506035351 11 344 1.6 4.8 0.00 5.31 0.03 95 1011.1
20260506034829 11 360 3.2 4.8 0.00 5.31 0.03 95 1011.1
20260506034329 11 212 3.2 6.4 0.00 5.31 0.03 96 1011.2
20260506033830 11 262 1.6 6.4 0.00 5.31 0.03 96 1011.1
20260506033329 11 253 4.8 6.4 0.00 5.31 0.03 96 1011.1
20260506032828 11 234 3.2 4.8 0.00 5.31 0.03 96 1011.2
20260506032328 10 253 3.2 3.2 0.00 5.31 0.03 96 1011.2
20260506031829 11 242 3.2 3.2 0.00 5.31 0.03 96 1011.3
20260506031329 11 122 1.6 4.8 0.00 5.31 0.03 96 1011.4
20260506030849 11 105 3.2 4.8 0.00 5.31 0.03 96 1011.4
20260506030325 11 273 1.6 3.2 0.00 5.31 0.03 96 1011.5
20260506025824 11 242 1.6 3.2 0.00 5.31 0.03 96 1011.7
20260506025322 11 29 1.6 3.2 0.00 5.31 0.03 96 1012.0
20260506024820 11 83 1.6 4.8 0.00 5.31 0.03 96 1012.0
20260506024321 11 90 3.2 4.8 0.00 5.31 0.03 96 1012.0
20260506023821 11 20 3.2 4.8 0.00 5.31 0.03 96 1012.1
20260506023321 11 150 1.6 8.0 0.00 5.31 0.03 96 1012.1
20260506022819 11 306 3.2 8.0 0.00 5.31 0.03 96 1012.0
20260506022346 11 265 6.4 9.7 0.00 5.31 0.03 96 1012.2
20260506021824 11 232 3.2 4.8 0.00 5.31 0.03 96 1012.1
20260506021321 11 308 1.6 3.2 0.00 5.31 0.03 96 1012.2
20260506020843 11 29 1.6 4.8 0.00 5.31 0.03 96 1012.3
20260506020322 11 40 3.2 4.8 0.00 5.31 0.03 96 1012.3
20260506015819 11 164 1.6 4.8 0.00 5.31 0.03 96 1012.3
20260506015321 11 298 1.6 4.8 0.00 5.31 0.03 96 1012.4
20260506014821 11 295 3.2 4.8 0.00 5.31 0.03 96 1012.4
20260506014321 11 138 1.6 4.8 0.00 5.31 0.03 96 1012.4
20260506013821 11 76 0.0 3.2 0.00 5.31 0.03 96 1012.3
20260506013342 11 83 1.6 3.2 0.00 5.31 0.03 96 1012.3
20260506012838 11 37 1.6 3.2 0.00 5.31 0.03 96 1012.2
20260506012338 11 37 0.0 4.8 0.00 5.31 0.03 96 1012.3
20260506011836 11 232 1.6 4.8 0.00 5.31 0.03 96 1012.3
20260506011334 11 232 0.0 4.8 0.00 5.31 0.03 96 1012.3
20260506010834 10 300 3.2 6.4 0.00 5.31 0.03 96 1012.3
20260506010332 10 266 4.8 6.4 0.00 5.31 0.03 96 1012.4
20260506005832 10 250 4.8 6.4 0.10 5.31 0.03 96 1012.5
20260506005352 10 70 1.6 3.2 0.10 5.31 0.03 96 1012.6
20260506004830 10 70 0.0 3.2 0.10 5.31 0.03 96 1012.7
20260506004328 10 70 0.0 3.2 0.10 5.31 0.03 96 1012.7
20260506003844 11 150 1.6 4.8 0.10 5.31 0.03 96 1012.8
20260506003319 11 144 1.6 6.4 0.10 5.31 0.03 96 1012.8
20260506002840 11 338 4.8 6.4 0.10 5.31 0.03 96 1012.8
20260506002318 10 265 3.2 4.8 0.10 5.31 0.03 96 1012.8
20260506001818 10 214 3.2 4.8 0.10 5.31 0.03 96 1013.0
20260506001318 10 257 3.2 4.8 0.10 5.31 0.03 96 1013.0
20260506000816 10 216 0.0 1.6 0.10 5.31 0.03 96 1013.1
20260506000316 10 216 0.0 1.6 0.10 5.31 0.03 96 1013.2
20260505235815 10 216 0.0 3.2 0.00 5.21 0.00 96 1013.0
20260505235334 10 216 1.6 3.2 0.00 5.21 0.00 96 1013.1
20260505234833 10 240 0.0 3.2 0.00 5.21 0.00 96 1013.1
20260505234340 10 178 0.0 3.2 0.00 5.21 0.00 96 1013.0
20260505233819 10 178 1.6 3.2 0.00 5.21 0.00 96 1013.0
20260505233317 10 175 3.2 3.2 0.00 5.21 0.00 96 1013.1
20260505232817 10 84 0.0 3.2 0.00 5.21 0.00 96 1013.2
20260505232317 10 84 1.6 3.2 0.00 5.21 0.00 96 1013.3
20260505231817 10 84 0.0 3.2 0.00 5.21 0.00 96 1013.2
20260505231315 10 84 1.6 3.2 0.00 5.21 0.00 96 1013.2
20260505230817 10 99 1.6 3.2 0.20 5.21 0.00 96 1013.3
20260505230315 11 346 1.6 3.2 0.51 5.21 0.00 96 1013.2
20260505225821 11 224 1.6 3.2 0.71 5.21 0.00 96 1013.4
20260505225319 10 224 1.6 3.2 0.79 5.21 0.00 96 1013.3
20260505224839 10 247 3.2 3.2 0.99 5.21 0.00 96 1013.3
20260505224316 10 251 3.2 3.2 1.30 5.21 0.00 96 1013.4
20260505223815 10 260 1.6 3.2 1.60 5.21 0.00 95 1013.4
20260505223314 10 86 1.6 3.2 1.60 5.21 0.00 95 1013.4
20260505222814 11 86 1.6 4.8 1.60 5.21 0.00 95 1013.4
20260505222313 11 86 3.2 4.8 1.60 5.21 0.00 95 1013.4
20260505221831 11 62 3.2 4.8 1.60 5.21 0.00 95 1013.4
20260505221328 11 19 1.6 3.2 1.50 5.11 1.02 95 1013.4
20260505220828 10 242 0.0 6.4 1.40 5.00 0.99 95 1013.5
20260505220325 10 242 3.2 6.4 1.09 4.70 0.94 95 1013.7
20260505215826 11 242 4.8 6.4 0.89 4.50 0.89 95 1013.6
20260505215323 11 238 3.2 4.8 0.79 4.39 0.89 95 1013.5
20260505214822 11 42 1.6 3.2 0.61 4.19 0.84 95 1013.7
20260505214321 11 13 1.6 3.2 0.30 3.91 0.79 95 1013.8
20260505213820 11 78 1.6 3.2 0.00 3.61 0.71 95 1013.9
20260505213319 11 78 1.6 3.2 0.00 3.61 0.71 94 1013.9
20260505212820 11 65 1.6 4.8 0.00 3.61 0.71 94 1013.9
20260505212320 11 65 1.6 4.8 0.00 3.61 0.71 94 1013.9
20260505211820 11 114 1.6 4.8 0.00 3.61 0.71 94 1013.9
20260505211319 11 235 1.6 4.8 0.10 3.61 0.71 94 1014.0
20260505210817 11 228 3.2 4.8 0.20 3.61 0.71 94 1014.0
20260505210316 11 181 0.0 3.2 0.20 3.61 0.71 95 1014.0
20260505205835 11 181 1.6 3.2 0.20 3.61 0.71 94 1014.2
20260505205333 11 181 0.0 1.6 0.20 3.61 0.71 94 1014.2
20260505204832 11 181 0.0 1.6 0.20 3.61 0.71 94 1014.1
20260505204331 11 181 0.0 3.2 0.20 3.61 0.71 94 1014.2
20260505203832 11 181 0.0 3.2 0.20 3.61 0.71 94 1014.1
20260505203332 11 181 1.6 3.2 0.20 3.61 0.71 94 1014.1
20260505202831 11 103 1.6 3.2 0.20 3.61 0.71 93 1014.1
20260505202330 11 103 1.6 3.2 0.20 3.61 0.71 93 1014.2
20260505201829 11 153 0.0 3.2 0.20 3.61 0.71 93 1014.2
20260505201328 11 153 1.6 1.6 0.10 3.51 0.71 94 1014.1
20260505200831 11 153 0.0 3.2 0.00 3.40 0.69 94 1014.2
20260505200330 11 153 1.6 3.2 0.00 3.40 0.69 94 1014.1
20260505195829 11 153 3.2 3.2 0.00 3.40 0.69 94 1014.2
20260505195329 11 153 0.0 3.2 0.00 3.40 0.69 94 1014.2
20260505194829 11 153 0.0 3.2 0.00 3.40 0.69 94 1014.1
20260505194328 11 153 1.6 3.2 0.00 3.40 0.69 94 1014.0
20260505193827 11 153 1.6 3.2 0.00 3.40 0.69 94 1014.1
20260505193327 11 153 1.6 3.2 0.00 3.40 0.69 94 1014.0
20260505192827 11 302 1.6 4.8 0.00 3.40 0.69 94 1014.0
20260505192328 11 310 1.6 4.8 0.00 3.40 0.69 94 1013.9
20260505191828 11 89 1.6 4.8 0.00 3.40 0.69 94 1013.9
20260505191327 11 53 0.0 6.4 0.00 3.40 0.69 94 1013.9
20260505190843 11 53 3.2 6.4 0.00 3.40 0.69 94 1013.9
20260505190321 11 46 3.2 6.4 0.00 3.40 0.69 94 1013.9
20260505185818 11 254 3.2 6.4 0.00 3.40 0.69 95 1013.9
20260505185336 11 259 4.8 8.0 0.00 3.40 0.69 95 1013.9
20260505184815 11 257 6.4 8.0 0.00 3.40 0.69 94 1013.9
20260505184314 11 241 4.8 4.8 0.00 3.40 0.69 94 1013.9
20260505183814 11 235 3.2 4.8 0.00 3.40 0.69 94 1013.9
20260505183342 11 87 0.0 4.8 0.00 3.40 0.69 94 1013.9
20260505182821 11 92 1.6 6.4 0.00 3.40 0.69 94 1013.9
20260505182339 11 24 4.8 8.0 0.00 3.40 0.69 94 1013.9
20260505181817 11 49 4.8 8.0 0.00 3.40 0.69 93 1013.9
20260505181318 11 53 3.2 4.8 0.00 3.40 0.69 94 1013.9
20260505180837 11 292 1.6 4.8 0.00 3.40 0.69 94 1013.8
20260505180315 11 284 3.2 4.8 0.00 3.40 0.69 94 1013.7
20260505175815 11 288 3.2 4.8 0.00 3.40 0.69 95 1013.6
20260505175314 11 242 1.6 4.8 0.00 3.40 0.69 95 1013.5
20260505174814 11 244 3.2 4.8 0.00 3.40 0.69 95 1013.5
20260505174313 11 254 3.2 4.8 0.00 3.40 0.69 95 1013.7
20260505173832 11 245 3.2 4.8 0.00 3.40 0.69 95 1013.7
20260505173352 11 246 1.6 3.2 0.00 3.40 0.69 95 1013.7
20260505172830 11 180 1.6 3.2 0.00 3.40 0.69 95 1013.6
20260505172330 11 136 0.0 3.2 0.00 3.40 0.69 95 1013.6
20260505171828 11 136 0.0 3.2 0.00 3.40 0.69 95 1013.7
20260505171348 11 136 1.6 3.2 0.00 3.40 0.69 95 1013.6
20260505170827 11 241 0.0 1.6 0.00 3.40 0.69 95 1013.5
20260505170325 11 241 0.0 3.2 0.00 3.40 0.69 95 1013.7
20260505165825 11 241 1.6 3.2 0.00 3.40 0.69 95 1013.7
20260505165324 11 241 1.6 3.2 0.00 3.40 0.69 95 1013.8
20260505164823 11 241 1.6 1.6 0.10 3.40 0.69 95 1013.7
20260505164322 11 241 0.0 1.6 0.10 3.40 0.69 96 1013.7
20260505163821 11 241 0.0 1.6 0.20 3.40 0.69 95 1013.8
20260505163319 11 241 0.0 3.2 0.30 3.40 0.69 95 1013.8
20260505162818 11 241 1.6 3.2 0.41 3.40 0.69 95 1013.9
20260505162317 11 207 1.6 3.2 0.51 3.40 0.69 95 1013.9
20260505161817 11 167 1.6 3.2 0.71 3.40 0.69 95 1013.8
20260505161317 11 124 0.0 3.2 0.71 3.40 0.69 95 1013.9
20260505160815 11 124 1.6 3.2 0.71 3.40 0.69 95 1013.8
20260505160336 11 128 1.6 3.2 0.79 3.40 0.69 95 1013.9
20260505153332 11 138 1.6 3.2 0.79 3.10 0.61 94 1014.1
20260505152832 11 161 1.6 3.2 0.71 3.00 0.61 95 1014.1
20260505152332 11 161 1.6 1.6 0.61 2.90 0.58 94 1014.2
20260505151830 11 161 1.6 1.6 0.51 2.69 0.53 94 1014.2
20260505151346 11 161 1.6 3.2 0.51 2.69 0.53 94 1014.1
20260505150823 11 164 1.6 3.2 0.51 2.59 0.51 94 1014.2
20260505150322 11 171 0.0 3.2 0.51 2.59 0.51 94 1014.2
20260505140318 11 115 1.6 4.8 0.51 2.11 0.43 93 1014.1
20260505124831 11 160 0.0 3.2 0.71 1.50 0.30 92 1014.3
20260505124331 11 160 1.6 3.2 0.71 1.50 0.30 91 1014.4
20260505123849 11 237 0.0 3.2 0.71 1.50 0.30 90 1014.4
20260505123327 11 158 0.0 3.2 0.61 1.40 0.28 90 1014.5
20260505122827 11 146 1.6 3.2 0.41 1.19 0.23 90 1014.6
20260505122325 11 146 1.6 4.8 0.20 0.99 0.20 90 1014.7
20260505121824 11 161 3.2 8.0 0.20 0.99 0.20 89 1014.6
20260505121323 11 157 3.2 8.0 0.10 0.89 0.18 89 1014.6
20260505120821 11 209 1.6 4.8 0.00 0.79 0.15 89 1014.6
20260505120319 11 248 1.6 4.8 0.00 0.79 0.15 89 1014.6
20260505115819 11 181 1.6 3.2 0.00 0.79 0.15 89 1014.5
20260505115318 11 218 1.6 4.8 0.00 0.79 0.15 88 1014.6
20260505114818 11 225 1.6 4.8 0.00 0.79 0.15 88 1014.6
20260505114317 11 166 1.6 4.8 0.00 0.79 0.15 89 1014.6
20260505113831 11 142 0.0 1.6 0.00 0.79 0.15 89 1014.5
20260505113351 11 142 0.0 1.6 0.00 0.79 0.15 89 1014.6
20260505112829 11 142 0.0 1.6 0.00 0.79 0.15 88 1014.6
20260505112330 11 142 0.0 1.6 0.00 0.79 0.15 89 1014.5
20260505111828 11 142 0.0 3.2 0.00 0.79 0.15 90 1014.5
20260505111348 11 142 1.6 3.2 0.00 0.79 0.15 90 1014.6
20260505110827 11 142 0.0 3.2 0.00 0.79 0.15 91 1014.6
20260505110327 11 142 1.6 3.2 0.00 0.79 0.15 91 1014.4
20260505101843 11 243 4.8 8.0 0.10 0.79 0.15 86 1014.5
20260505101321 11 259 6.4 9.7 0.10 0.79 0.15 85 1014.6
20260505100821 11 252 3.2 4.8 0.20 0.79 0.15 87 1014.5
20260505100319 11 225 4.8 4.8 0.20 0.79 0.15 88 1014.5
20260505095817 11 213 3.2 11.3 0.20 0.79 0.15 86 1014.5
20260505095316 11 223 4.8 11.3 0.30 0.79 0.15 87 1014.3
20260505094816 11 223 1.6 4.8 0.41 0.79 0.15 88 1014.2
20260505094314 11 213 1.6 4.8 0.41 0.79 0.15 87 1014.3
20260505093814 11 259 3.2 4.8 0.51 0.79 0.15 87 1014.3
20260505093314 11 275 3.2 4.8 0.41 0.71 0.15 87 1014.2
20260505092815 11 254 3.2 4.8 0.41 0.71 0.15 87 1014.4
20260505092316 11 259 3.2 4.8 0.41 0.71 0.15 88 1014.4
20260505091833 11 265 3.2 8.0 0.51 0.71 0.15 89 1014.4
20260505091332 11 240 3.2 8.0 0.51 0.71 0.15 90 1014.4
20260505090831 11 250 4.8 6.4 0.41 0.61 0.13 90 1014.4
20260505090352 11 252 4.8 6.4 0.41 0.61 0.13 90 1014.3
20260505085829 11 242 3.2 4.8 0.30 0.51 0.13 90 1014.5
20260505085328 11 199 1.6 3.2 0.30 0.51 0.10 90 1014.5
20260505084826 11 155 1.6 3.2 0.20 0.41 0.08 90 1014.6
20260505084322 11 150 0.0 3.2 0.20 0.41 0.08 89 1014.5
20260505083842 11 162 1.6 3.2 0.10 0.30 0.05 88 1014.6
20260505083321 11 184 1.6 3.2 0.10 0.30 0.05 88 1014.8
20260505082819 11 228 0.0 3.2 0.20 0.30 0.05 87 1014.7
20260505082319 11 228 1.6 4.8 0.20 0.30 0.05 87 1014.7
20260505081820 11 246 1.6 6.4 0.10 0.20 0.05 86 1014.7
20260505081320 11 229 3.2 4.8 0.20 0.20 0.05 85 1014.7
20260505080821 11 248 3.2 3.2 0.20 0.20 0.05 85 1014.7
20260505080320 11 140 1.6 4.8 0.20 0.20 0.05 85 1014.7
20260505075819 11 138 1.6 4.8 0.20 0.20 0.05 84 1014.7
20260505075316 11 182 0.0 0.0 0.20 0.20 0.05 81 1014.6
20260505074844 11 182 0.0 0.0 0.20 0.20 0.05 82 1014.7
20260505074324 11 99 0.0 4.8 0.20 0.20 0.05 80 1014.8
20260505073840 12 99 0.0 4.8 0.20 0.20 0.05 82 1014.7
20260505073356 12 113 1.6 4.8 0.20 0.20 0.05 81 1014.7
20260505072855 12 48 1.6 4.8 0.10 0.10 0.03 79 1014.7
20260505072355 12 35 3.2 4.8 0.10 0.10 0.03 78 1014.8
20260505071832 12 340 1.6 4.8 0.10 0.10 0.03 77 1014.8
20260505071329 12 33 1.6 3.2 0.00 0.00 0.00 78 1014.6
20260505070848 12 97 1.6 4.8 0.00 0.00 0.00 80 1014.5